Location: Bailleul
(50.3375°N, 2.8513°E)
Time: 04:40:17
(UTC+00:00)

deb Kosmos-252 - Pass Details

Date: 05 February 2022
Orbit: 721 x 1918 km, 62.3° (Epoch: 21 May)

Event Time Altitude Azimuth Distance (km) Brightness Sun altitude
Rises 19:37:19 0° 313° (NW) 3,142 ? -27.1°
Reaches altitude 10° 19:39:36 10° 310° (NW) 2,226 ? -27.5°
Maximum altitude 19:44:29 62° 230° (SW) 868 ? -28.2°
Enters shadow 19:44:44 61° 214° (SSW) 879 ? -28.3°
